Location: Schommer Observatory
(40.5200°N, 74.4500°W)
Time: 18:08:38
(UTC-04:00)

LightSail 2 - Visible Passes

Search period start: 23 August 2019 00:00
Search period end: 02 September 2019 00:00
Orbit: 700 x 733 km, 24.0° (Epoch: 23 August)

Date Brightness Start Highest point End Pass type
(mag) Time Alt. Az. Time Alt. Az. Time Alt. Az.
23 Aug 7.2 20:57:26 10° SSW 20:59:08 12° S 21:00:13 11° SSE visible
24 Aug 7.5 21:45:42 10° SSW 21:45:45 10° SSW 21:45:45 10° SSW visible
25 Aug 7.2 20:48:34 10° SSW 20:50:21 12° S 20:52:07 10° SSE visible
27 Aug 7.4 20:40:34 10° SSW 20:41:31 10° S 20:42:29 10° S visible
